Waarnemingen

Advertentie
Mijn weer
Torup A, Zweden (2618): temperatuur & dauwpunt: 18.10.2017 07:00:00 - 24.10.2017 07:00:00 (CEST)Torup A, Zweden (2618): windsnelheid & windstoten: 18.10.2017 07:00:00 - 24.10.2017 07:00:00 (CEST)Torup A, Zweden (2618): windrichting: 18.10.2017 07:00:00 - 24.10.2017 07:00:00 (CEST)Torup A, Zweden (2618): luchtdruk: 18.10.2017 07:00:00 - 24.10.2017 07:00:00 (CEST)Torup A, Zweden (2618): zicht: 18.10.2017 07:00:00 - 24.10.2017 07:00:00 (CEST)Torup A, Zweden (2618): neerslag: 18.10.2017 07:00:00 - 24.10.2017 07:00:00 (CEST)
Datum & Tijd tt [°C] td [°C] ff [km/u] ff [kn] fx [km/u] fx [kn] dd ppp [hPa] vv [km] rr [mm]
24.10.2017 07:00:00 4,2 0,3 11 6 31 17 O 1023,6 14 0,0
24.10.2017 06:00:00 4,2 0,5 16 9 30 16 O 1023,8 15 0,0
24.10.2017 05:00:00 4,0 0,9 15 8 26 14 O 1024,0 17 0,0
24.10.2017 04:00:00 4,0 1,0 13 7 22 12 O 1024,3 15 0,0
24.10.2017 03:00:00 3,8 1,2 9 5 19 10 O 1024,6 16 0,0
24.10.2017 02:00:00 3,3 1,2 8 4 14 8 O 1024,6 12 0,0
24.10.2017 01:00:00 2,5 1,0 7 4 16 9 ONO 1024,5 15 0,0
24.10.2017 00:00:00 2,5 0,7 9 5 19 10 ONO 1024,3 17 0,0
23.10.2017 23:00:00 2,9 0,6 10 5 23 13 O 1023,6 16 0,0
23.10.2017 22:00:00 3,1 1,0 11 6 24 13 O 1023,1 18 0,0
23.10.2017 21:00:00 4,5 1,0 13 7 29 16 O 1023,2 17 0,0
23.10.2017 20:00:00 5,0 0,9 14 7 31 17 ONO 1022,9 17 0,0
23.10.2017 19:00:00 5,4 1,5 16 9 31 17 ONO 1022,5 16 0,0
23.10.2017 18:00:00 5,5 2,0 16 8 29 16 O 1021,6 9 0,0
23.10.2017 17:00:00 5,9 3,4 13 7 29 16 ONO 1020,7 16 0,0
23.10.2017 16:00:00 5,8 4,0 17 9 31 17 ONO 1020,0 13 0,0
23.10.2017 15:00:00 6,0 4,5 13 7 31 17 ONO 1019,1 20 0,0
23.10.2017 14:00:00 6,3 4,6 16 9 35 19 ONO 1018,5 23 0,0
23.10.2017 13:00:00 6,2 5,0 15 8 35 19 ONO 1018,1 18 0,0
23.10.2017 12:00:00 6,2 5,3 16 9 35 19 ONO 1017,5 16 0,0
23.10.2017 11:00:00 6,5 5,8 16 9 31 17 ONO 1016,7 17 0,0
23.10.2017 10:00:00 6,8 6,4 13 7 30 16 ONO 1015,9 20 0,0
23.10.2017 09:00:00 7,2 6,9 11 6 30 16 ONO 1014,9 7 0,3
23.10.2017 08:00:00 7,1 7,0 12 6 23 12 NO 1014,1 3,1 0,3
23.10.2017 07:00:00 7,3 7,2 10 6 22 12 NO 1013,1 9 0,0
23.10.2017 06:00:00 7,1 7,0 10 5 23 12 NO 1012,3 12 0,0
23.10.2017 05:00:00 7,0 6,9 10 6 24 13 NO 1012,0 6 0,0
23.10.2017 04:00:00 7,5 7,2 12 6 24 13 NO 1011,5 15 0,0
23.10.2017 03:00:00 7,9 7,8 8 5 18 10 NO 1011,2 9 0,0
23.10.2017 02:00:00 8,1 8,0 7 4 16 8 NO 1011,1 50 0,3
23.10.2017 01:00:00 8,2 8,1 8 4 16 8 NO 1010,7 50 0,3
23.10.2017 00:00:00 8,5 8,4 7 4 13 7 NO 1010,7 14 0,3
22.10.2017 23:00:00 8,6 8,5 5 3 13 7 O 1010,4 23 0,1
22.10.2017 22:00:00 8,5 8,4 6 3 11 6 NO 1009,8 5 0,3
22.10.2017 21:00:00 8,6 8,5 6 3 12 7 NO 1009,7 5 0,5
22.10.2017 20:00:00 8,7 8,6 6 3 13 7 ONO 1009,7 12 0,8
22.10.2017 19:00:00 8,7 8,6 7 4 16 8 ONO 1009,3 16 0,9
22.10.2017 18:00:00 8,7 8,6 9 5 18 10 NO 1009,1 15 2,0
22.10.2017 17:00:00 8,9 8,8 9 5 19 10 ONO 1009,0 16 1,5
22.10.2017 16:00:00 9,0 8,9 8 4 21 12 ONO 1008,9 20 1,1
22.10.2017 15:00:00 9,1 9,0 10 5 21 12 O 1009,1 19 1,3
22.10.2017 14:00:00 9,2 9,1 10 5 22 12 ONO 1009,3 16 0,9
22.10.2017 13:00:00 9,2 9,1 10 5 24 13 O 1009,9 14 1,0
22.10.2017 12:00:00 9,2 8,9 12 6 25 14 O 1009,9 17 0,5
22.10.2017 11:00:00 9,0 8,7 13 7 24 13 O 1010,1 32 0,8
22.10.2017 10:00:00 8,7 8,6 12 6 24 13 O 1010,4 20 1,6
22.10.2017 09:00:00 8,6 8,5 10 5 27 14 O 1010,6 16 1,0
22.10.2017 08:00:00 8,5 8,2 13 7 31 17 O 1010,7 22 1,4
22.10.2017 07:00:00 8,5 8,2 14 8 31 17 O 1010,9 21 0,6
22.10.2017 06:00:00 8,5 8,2 16 9 31 17 O 1011,4 4,0 0,3
22.10.2017 05:00:00 8,5 8,2 14 8 32 18 O 1011,8 6 0,0
22.10.2017 04:00:00 8,6 8,0 16 9 36 19 O 1012,1 4,0 0,0
22.10.2017 03:00:00 8,7 7,9 15 8 36 19 O 1012,4 8 0,0
22.10.2017 02:00:00 8,9 8,0 16 9 35 19 O 1013,0 14 0,0
22.10.2017 01:00:00 9,0 8,4 15 8 38 21 OZO 1013,4 8 0,0
22.10.2017 00:00:00 8,9 8,1 21 11 38 21 O 1013,8 7 0,2
21.10.2017 23:00:00 9,1 7,9 20 11 38 21 O 1014,0 10 0,0
21.10.2017 22:00:00 8,7 7,8 15 8 40 21 O 1014,4 19 0,0
21.10.2017 21:00:00 9,0 7,3 22 12 40 21 O 1014,3 10 0,0
21.10.2017 20:00:00 9,1 7,2 16 9 40 22 O 1014,6 21 0,0
21.10.2017 19:00:00 9,2 6,8 18 10 40 22 O 1014,7 17 0,0
21.10.2017 18:00:00 9,4 6,8 18 10 45 24 O 1014,8 22 0,0
21.10.2017 17:00:00 9,7 7,5 16 9 45 24 O 1014,7 18 0,0
21.10.2017 16:00:00 9,7 7,6 20 11 44 24 O 1014,9 19 0,0
21.10.2017 15:00:00 10,0 8,1 18 10 36 19 O 1014,9 21 0,0
21.10.2017 14:00:00 9,9 8,3 18 10 36 19 O 1014,8 18 0,0
21.10.2017 13:00:00 9,6 8,8 18 10 34 18 ONO 1014,9 9 0,0
21.10.2017 12:00:00 9,5 8,3 15 8 33 18 O 1015,3 10 0,0
21.10.2017 11:00:00 9,2 8,1 13 7 35 19 O 1015,3 16 0,0
21.10.2017 10:00:00 9,0 7,8 16 8 35 19 O 1015,0 17 0,0
21.10.2017 09:00:00 8,7 7,8 14 8 37 20 ONO 1015,2 15 0,0
21.10.2017 08:00:00 8,7 7,8 18 10 37 20 ONO 1014,6 11 0,0
21.10.2017 07:00:00 8,8 8,0 16 9 36 19 O 1014,4 12 0,0
21.10.2017 06:00:00 8,9 8,3 14 8 31 17 O 1014,2 10 0,0
21.10.2017 05:00:00 9,0 8,4 13 7 32 17 O 1014,2 16 0,1
21.10.2017 04:00:00 9,1 8,5 14 8 35 19 ONO 1013,9 23 0,2
21.10.2017 03:00:00 9,2 8,6 16 9 35 19 ONO 1014,0 14 0,1
21.10.2017 02:00:00 9,3 8,8 15 8 35 19 ONO 1014,3 13 0,3
21.10.2017 01:00:00 9,5 9,0 16 8 27 15 ONO 1014,6 30 0,5
21.10.2017 00:00:00 9,7 9,2 10 6 23 13 ONO 1014,9 21 0,2
20.10.2017 23:00:00 9,8 9,3 9 5 29 16 O 1015,1 12 1,2
20.10.2017 22:00:00 10,0 9,4 12 6 31 17 O 1014,8 12 0,4
20.10.2017 21:00:00 10,3 9,4 15 8 31 17 O 1014,6 10 0,0
20.10.2017 20:00:00 10,7 9,0 16 9 29 16 O 1014,5 13 0,0
20.10.2017 19:00:00 10,7 9,1 11 6 23 12 O 1014,6 14 0,0
20.10.2017 18:00:00 10,8 9,2 13 7 32 17 O 1014,6 12 0,0
20.10.2017 17:00:00 10,8 9,2 14 7 33 18 O 1014,4 12 0,0
20.10.2017 16:00:00 11,1 9,2 14 7 36 19 O 1014,4 13 0,0
20.10.2017 15:00:00 11,1 9,0 19 10 36 19 O 1014,6 13 0,0
20.10.2017 14:00:00 10,9 8,9 15 8 36 20 O 1014,7 11 0,0
20.10.2017 13:00:00 10,7 9,0 17 9 36 20 OZO 1015,1 11 0,0
20.10.2017 12:00:00 10,3 9,1 14 8 32 18 O 1015,1 9 0,0
20.10.2017 11:00:00 10,0 8,9 13 7 31 17 O 1015,4 12 0,0
20.10.2017 10:00:00 9,5 8,7 18 10 31 17 O 1015,6 9 0,0
20.10.2017 09:00:00 9,1 8,5 13 7 30 16 O 1015,5 10 0,0
20.10.2017 08:00:00 9,1 8,3 13 7 30 16 O 1015,5 14 0,0
20.10.2017 07:00:00 8,7 8,1 14 8 25 14 O 1015,6 13 0,0
20.10.2017 06:00:00 8,5 8,1 13 7 23 13 O 1015,8 12 0,0
20.10.2017 05:00:00 8,3 7,9 13 7 23 13 O 1016,0 13 0,0
20.10.2017 04:00:00 8,0 7,6 11 6 18 10 O 1016,8 12 0,0
20.10.2017 03:00:00 7,8 7,2 10 5 19 11 O 1017,4 22 0,1
20.10.2017 02:00:00 7,5 6,9 9 5 19 11 O 1017,6 34 0,1
20.10.2017 01:00:00 7,3 6,7 10 5 20 11 O 1017,9 32 0,8
20.10.2017 00:00:00 7,4 6,0 9 5 20 11 O 1018,3 30 0,3
19.10.2017 23:00:00 8,3 5,1 11 6 20 11 O 1018,5 39 0,0
19.10.2017 22:00:00 8,4 5,2 10 5 20 11 O 1018,2 14 0,0
19.10.2017 21:00:00 8,4 5,2 9 5 17 9 O 1018,3 19 0,0
19.10.2017 20:00:00 8,5 5,2 7 4 13 7 O 1018,1 18 0,0
19.10.2017 19:00:00 8,7 5,3 7 4 22 12 ONO 1018,5 18 0,0
19.10.2017 18:00:00 9,4 5,6 8 4 22 12 O 1018,4 12 0,0
19.10.2017 17:00:00 10,0 6,3 10 5 20 11 O 1018,4 15 0,0
19.10.2017 16:00:00 10,2 7,3 10 5 19 10 O 1018,5 14 0,0
19.10.2017 15:00:00 9,7 7,5 9 5 19 11 O 1018,6 13 0,0
19.10.2017 14:00:00 9,4 7,3 8 4 22 12 O 1018,8 18 0,0
19.10.2017 13:00:00 8,6 7,2 12 7 22 12 O 1019,0 16 0,0
19.10.2017 12:00:00 8,6 7,2 11 6 21 12 O 1019,1 16 0,0
19.10.2017 11:00:00 7,7 6,6 11 6 19 11 O 1019,3 19 0,0
19.10.2017 10:00:00 7,0 5,8 9 5 15 8 O 1019,2 15 0,0
19.10.2017 09:00:00 6,0 5,3 6 3 10 6 ONO 1019,0 13 0,1
19.10.2017 08:00:00 5,8 4,9 7 4 13 7 NO 1018,6 14 0,0
19.10.2017 07:00:00 6,1 4,9 6 4 16 9 NO 1018,2 19 0,0
19.10.2017 06:00:00 6,2 5,0 7 4 16 9 O 1018,0 14 0,0
19.10.2017 05:00:00 5,2 4,5 6 3 12 6 NO 1018,1 11 0,0
19.10.2017 04:00:00 5,0 4,1 7 4 15 8 NO 1018,2 16 0,0
19.10.2017 03:00:00 5,0 3,8 8 5 17 9 NO 1018,3 13 0,0
19.10.2017 02:00:00 5,1 3,9 9 5 17 9 ONO 1018,2 16 0,0
19.10.2017 01:00:00 5,3 4,3 8 4 15 8 NO 1018,0 14 0,0
19.10.2017 00:00:00 5,0 4,4 7 4 12 7 NNO 1018,0 14 0,0
18.10.2017 23:00:00 5,8 4,9 7 4 12 6 NNO 1017,7 16 0,0
18.10.2017 22:00:00 6,8 6,2 6 4 13 7 NO 1017,4 17 0,0
18.10.2017 21:00:00 7,3 6,7 6 3 13 7 NNO 1017,0 14 0,0
18.10.2017 20:00:00 8,0 7,7 7 4 12 7 NNO 1016,4 15 0,0
18.10.2017 19:00:00 8,8 8,3 6 3 17 9 NO 1015,9 14 0,0
18.10.2017 18:00:00 9,3 9,0 7 4 17 9 NO 1015,5 17 0,0
18.10.2017 17:00:00 10,4 10,1 7 4 16 9 NNO 1014,8 11 0,0
18.10.2017 16:00:00 11,0 10,5 8 4 16 9 NNO 1014,5 16 0,3
18.10.2017 15:00:00 11,0 10,5 8 4 17 9 N 1014,2 3,5 0,4
18.10.2017 14:00:00 13,2 10,9 6 3 22 12 WZW 1013,6 19 0,0
18.10.2017 13:00:00 13,1 11,2 11 6 24 13 WZW 1013,4 17 0,0
18.10.2017 12:00:00 12,3 11,4 13 7 24 13 W 1013,0 10 0,0
18.10.2017 11:00:00 11,5 11,0 13 7 26 14 W 1012,8 5 0,1
18.10.2017 10:00:00 11,6 11,3 12 6 29 15 WZW 1012,0 6 0,0
18.10.2017 09:00:00 11,1 10,6 12 6 29 15 W 1011,3 6 0,0
18.10.2017 08:00:00 11,0 10,7 16 9 35 19 W 1010,6 4,4 0,6
18.10.2017 07:00:00 10,9 10,4 12 6 37 20 WZW 1010,1 4,0 0,6

tt = temperatuur
td = dauwpunt
ff = windsnelheid
fx = windstoten
dd = windrichting
ppp = luchtdruk
vv = zicht
rr = neerslag

Weerstations in de omgeving